Wind_Speed
4 3 2 4 5 2 0 1 3 4 5 4 3 4 5 6 7 8 9 9 9 9 9 9 8 8 7 6 6 6 5 5 5 5 5 6 6 6 6 5 5 5 5 5
6 4 3 4 4 3 3 3 4 4 6 6 5 4 4 5 6 7 8 8 8 9 9 10 9 8 7 7 6 6 6 6 6 6 6 6 6 7 7 6 6 6 6 6
8 5 6 7 6 5 4 4 5 5 4 5 6 6 4 4 7 6 6 8 8 9 9 9 9 8 8 7 7 7 7 7 7 7 8 8 7 7 7 7 7 7 6 7
10 8 9 8 8 7 7 7 7 5 3 5 6 7 7 5 6 6 6 6 7 8 8 8 8 8 8 8 7 7 7 7 7 8 8 9 8 7 7 7 8 7 6 6
11 11 11 11 11 10 9 8 6 5 5 6 6 8 9 7 7 8 6 7 7 7 7 7 8 8 9 8 7 7 8 8 9 9 9 9 9 8 7 7 7 8 7 7
13 12 12 12 12 11 9 7 6 6 8 7 6 8 10 9 9 8 8 9 8 8 8 7 7 8 9 9 8 8 9 9 9 9 10 10 9 9 9 8 8 8 8 9
13 12 12 12 11 11 9 7 6 8 7 8 8 11 12 11 11 11 10 10 10 9 8 8 8 8 9 9 9 9 9 9 9 10 10 11 10 10 10 10 10 10 11 11
13 14 13 13 13 13 12 10 10 11 10 11 10 13 13 11 12 11 12 11 11 11 10 9 9 9 9 10 10 10 10 10 10 10 11 11 11 11 11 11 11 12 12 13
14 15 15 16 16 14 13 12 11 12 12 12 13 13 14 13 12 12 12 12 12 12 12 11 11 10 11 11 12 12 12 12 12 12 12 12 12 13 13 13 13 13 14 15
18 18 16 17 18 16 14 14 13 13 13 14 14 15 15 14 13 14 13 14 14 14 14 13 13 13 13 13 13 13 13 14 14 14 14 14 14 14 14 15 15 15 15 16
21 20 18 17 18 17 16 16 17 16 16 15 15 18 16 15 15 15 15 15 15 14 15 15 14 15 15 15 15 14 14 15 15 15 15 15 15 16 16 16 17 17 17 17
23 21 20 19 19 19 19 19 19 19 19 18 17 19 16 16 16 17 18 18 16 15 16 16 16 16 16 16 16 15 16 16 16 16 16 16 16 16 17 18 19 19 18 19
23 23 21 19 20 20 21 20 20 19 19 20 19 22 20 18 19 19 20 20 18 17 18 18 18 19 17 16 17 17 17 18 18 18 18 18 18 19 19 20 20 20 20 21
24 24 24 22 20 20 21 21 20 20 20 21 21 21 23 21 21 21 21 21 21 21 20 20 20 20 20 20 19 19 19 20 20 21 20 20 20 20 21 22 22 22 23 23
25 25 24 24 22 23 24 24 24 23 21 21 22 23 25 24 22 22 23 24 25 25 24 23 22 22 22 22 22 22 22 22 22 22 22 22 22 22 23 23 24 24 24 24
26 25 26 26 25 24 25 25 25 25 23 23 25 26 25 26 25 24 25 25 26 27 26 24 24 23 24 24 24 24 24 23 23 24 24 24 24 24 25 25 25 25 25 26
27 27 27 26 24 25 25 24 24 25 26 27 28 29 26 27 26 27 29 28 28 28 27 27 26 25 25 25 26 25 25 25 25 25 25 25 26 26 26 26 26 26 26 27
27 27 26 25 24 27 26 24 25 26 27 29 31 31 30 30 29 29 30 29 28 29 29 29 28 28 27 27 28 27 26 26 26 26 26 26 26 26 26 27 28 29 29 29
26 26 26 24 23 24 25 26 25 25 28 29 31 32 29 30 31 31 31 30 29 29 30 29 29 28 28 28 28 28 27 27 27 27 27 28 28 29 29 29 30 30 30 31
26 25 25 24 24 24 26 26 25 26 29 29 30 32 32 32 33 33 32 31 30 30 30 30 30 29 29 29 28 28 28 29 29 29 29 30 30 30 31 31 31 31 32 32
26 26 26 26 26 26 26 26 26 28 30 29 30 30 31 32 34 34 33 32 32 31 31 31 31 30 30 30 30 30 30 30 30 31 32 32 32 33 33 33 33 33 34 34
25 27 28 27 27 28 29 28 28 29 30 30 30 31 31 32 33 33 33 34 33 34 33 33 33 32 32 32 33 33 33 33 33 34 34 34 34 34 35 35 35 36 36 35
26 26 27 29 30 30 30 30 31 31 31 31 31 32 32 32 33 33 34 33 33 33 34 34 33 34 34 35 34 34 34 35 35 36 36 36 36 36 36 37 37 37 37 37
27 27 28 29 30 30 30 31 30 31 32 32 32 32 32 33 32 33 33 34 33 33 34 34 34 34 35 35 35 35 35 36 36 37 37 38 38 38 38 38 38 38 38 38
29 29 30 31 32 31 32 32 32 32 32 32 31 32 32 33 33 33 34 34 34 34 34 35 35 36 36 36 35 35 36 36 36 37 38 38 39 39 39 39 39 39 39 39
29 29 30 32 31 30 31 31 31 32 32 31 32 32 33 34 34 33 33 33 34 35 35 35 35 36 36 36 35 36 36 37 37 38 38 39 39 39 39 39 39 39 39 39
Wind_Direction
181 165 164 217 223 222 80 290 305 319 315 332 340 348 359 8 17 22 23 25 23 23 25 23 23 23 20 18 17 15 12 8 360 350 347 358 359 358 354 344 339 335 332 330
206 199 228 245 243 226 239 266 285 305 312 317 325 341 345 346 358 14 14 17 17 19 22 19 18 18 19 14 7 4 8 13 9 358 351 353 351 350 350 350 344 341 337 331
219 219 237 239 247 237 251 271 277 280 302 310 318 323 316 327 340 2 6 5 1 10 12 12 13 15 15 14 12 9 7 5 359 354 352 348 346 345 348 350 345 343 341 338
229 231 236 244 247 241 250 256 261 275 280 281 298 305 299 320 330 342 347 348 348 353 1 4 6 6 9 6 2 4 4 359 355 349 347 349 345 341 342 343 347 344 342 333
226 231 234 238 242 242 242 250 262 260 268 269 286 287 296 315 318 317 318 327 328 335 346 355 355 356 358 356 353 352 351 350 349 347 345 344 345 343 344 343 340 335 332 336
229 229 235 236 241 242 238 241 265 278 281 268 271 280 284 298 307 309 311 318 323 327 334 346 349 347 349 350 349 349 347 343 340 338 338 338 337 339 341 340 338 334 334 334
235 233 240 243 241 247 236 232 263 278 282 268 267 266 264 283 291 298 307 313 315 316 321 326 331 336 339 342 344 344 343 338 334 332 331 331 330 330 329 329 329 329 328 328
227 239 239 244 242 238 236 231 248 259 269 276 264 256 259 269 279 285 290 296 303 306 306 310 318 322 326 330 333 334 332 328 325 322 322 322 320 320 321 321 321 321 319 319
222 238 245 244 247 242 238 237 238 250 260 269 269 264 268 270 279 279 280 287 297 302 301 302 305 310 313 315 321 322 321 320 319 317 315 314 314 313 313 314 313 312 313 313
224 226 230 240 244 245 243 241 242 245 251 254 262 264 263 275 283 281 280 285 288 294 296 299 303 306 304 304 308 311 314 315 313 313 313 310 308 308 310 310 310 307 307 308
233 232 232 234 240 243 244 244 243 246 249 255 258 265 266 278 280 282 282 284 287 291 293 293 295 299 298 300 303 306 308 309 309 309 309 308 307 306 305 306 307 307 307 305
237 236 236 235 237 244 243 243 243 247 250 249 258 263 257 270 274 279 278 279 282 282 285 287 290 292 295 296 298 302 303 304 304 305 306 306 305 306 305 305 305 305 305 304
235 236 237 236 240 245 248 246 243 245 251 253 258 268 264 263 265 270 272 276 275 277 280 283 286 287 291 294 295 298 299 302 301 301 302 302 302 302 303 302 303 304 304 303
238 237 236 236 237 245 249 252 250 246 246 250 253 261 263 260 264 267 270 276 277 278 279 281 284 286 288 290 292 293 295 298 299 300 299 298 298 299 299 299 301 302 302 302
242 242 241 239 241 242 245 249 251 251 248 251 253 258 263 267 269 269 272 275 276 276 278 280 281 282 283 285 288 291 291 292 294 296 297 297 298 298 299 299 299 300 299 299
247 246 244 243 244 246 247 248 246 251 253 252 255 260 264 267 268 269 271 275 276 276 277 279 280 282 281 282 285 288 292 292 293 293 293 295 296 297 298 298 297 298 297 297
249 250 247 245 247 249 248 249 249 249 248 252 255 258 260 263 267 270 270 271 272 276 277 278 279 280 279 280 283 286 288 291 292 291 291 294 295 296 297 297 298 299 299 298
248 250 253 251 248 248 248 249 252 252 252 256 258 260 263 263 265 267 269 270 269 273 276 277 277 278 279 280 281 284 285 288 289 290 291 292 293 295 295 296 297 298 298 297
248 249 250 251 252 253 251 249 250 253 255 256 257 258 260 263 267 268 270 271 271 273 275 276 277 278 278 278 279 282 282 284 286 287 289 291 292 293 293 294 295 296 296 297
249 249 250 250 249 250 252 255 255 255 257 258 260 260 262 263 267 268 271 273 273 272 274 275 275 277 277 277 279 281 281 282 284 286 288 289 290 291 292 292 291 292 294 296
252 250 249 248 250 252 256 257 257 255 258 260 263 264 266 266 267 269 270 271 273 272 272 272 272 274 276 277 278 279 280 281 283 285 287 289 289 291 292 291 291 292 293 294
254 255 252 250 250 252 257 257 258 257 259 260 262 265 268 269 269 270 271 270 272 272 272 271 270 271 274 276 278 280 280 281 282 284 286 287 289 290 291 291 291 291 292 292
251 253 253 254 253 255 257 258 259 262 263 263 264 266 268 269 271 273 272 271 271 271 272 271 270 272 275 277 279 280 280 281 281 282 284 285 287 288 288 288 289 290 291 291
250 252 253 254 255 255 258 260 260 262 263 265 267 269 270 270 271 273 272 270 270 270 272 272 273 274 276 278 279 280 281 281 282 283 283 284 286 287 287 287 288 290 290 290
251 252 254 255 254 255 259 262 262 263 263 265 266 268 270 272 272 273 273 271 270 271 271 272 273 275 276 276 277 279 280 282 282 283 283 284 284 285 286 287 288 288 290 290
250 251 254 256 259 259 261 263 264 265 266 267 267 269 272 272 272 272 273 273 272 271 271 271 273 274 275 275 277 279 280 281 282 283 284 284 285 286 287 288 288 289 289 289
Height
5920 5922 5924 5925 5926 5927 5928 5929 5930 5930 5927 5926 5925 5923 5921 5920 5918 5918 5917 5916 5915 5913 5913 5912 5911 5910 5910 5909 5908 5908 5908 5908 5907 5907 5907 5906 5906 5906 5905 5905 5905 5904 5904 5904
5921 5922 5925 5925 5925 5927 5928 5929 5930 5930 5928 5927 5925 5924 5923 5922 5919 5919 5919 5917 5916 5915 5914 5913 5912 5911 5911 5910 5910 5910 5909 5909 5908 5908 5908 5907 5907 5906 5906 5905 5904 5904 5904 5903
5920 5923 5923 5924 5926 5926 5928 5929 5929 5929 5928 5927 5927 5925 5923 5923 5922 5921 5920 5919 5917 5916 5915 5914 5913 5912 5912 5911 5911 5910 5910 5909 5909 5908 5908 5907 5906 5906 5906 5905 5904 5903 5903 5902
5919 5921 5923 5924 5925 5926 5927 5927 5928 5927 5927 5927 5928 5925 5922 5922 5922 5921 5920 5920 5919 5917 5916 5915 5914 5913 5913 5912 5912 5911 5910 5910 5909 5908 5908 5907 5906 5906 5905 5905 5904 5903 5903 5902
5917 5919 5921 5922 5924 5924 5925 5926 5926 5926 5926 5926 5926 5926 5923 5922 5922 5921 5920 5920 5919 5917 5916 5916 5915 5914 5913 5912 5912 5911 5911 5910 5909 5908 5907 5907 5906 5905 5905 5904 5904 5903 5902 5901
5914 5917 5918 5920 5921 5922 5923 5924 5925 5925 5925 5926 5927 5926 5923 5922 5923 5921 5920 5920 5919 5917 5915 5915 5915 5914 5914 5913 5912 5911 5911 5910 5909 5908 5907 5906 5906 5905 5904 5904 5903 5902 5901 5900
5912 5914 5916 5917 5919 5920 5921 5923 5925 5925 5925 5925 5925 5925 5923 5922 5922 5921 5921 5920 5919 5918 5917 5915 5914 5914 5913 5913 5912 5911 5911 5910 5909 5908 5907 5906 5905 5904 5904 5903 5902 5901 5900 5899
5910 5913 5914 5915 5916 5918 5920 5921 5923 5925 5925 5924 5924 5921 5920 5920 5920 5920 5920 5919 5918 5917 5916 5915 5914 5913 5912 5912 5912 5911 5910 5909 5908 5907 5906 5905 5904 5903 5902 5901 5900 5899 5898 5897
5908 5911 5912 5913 5914 5915 5917 5918 5920 5922 5922 5923 5922 5919 5918 5917 5917 5918 5917 5917 5917 5915 5914 5913 5912 5911 5911 5911 5910 5910 5909 5908 5907 5906 5904 5903 5902 5901 5900 5899 5898 5897 5895 5894
5903 5905 5908 5909 5911 5912 5914 5915 5917 5918 5918 5919 5919 5915 5915 5915 5916 5916 5915 5915 5914 5913 5912 5911 5910 5909 5909 5908 5908 5908 5907 5906 5905 5904 5902 5901 5900 5899 5897 5896 5895 5894 5893 5891
5898 5900 5903 5906 5907 5909 5911 5912 5913 5914 5915 5916 5916 5915 5912 5913 5912 5912 5912 5912 5911 5910 5910 5909 5908 5907 5907 5906 5905 5905 5904 5904 5902 5901 5900 5898 5897 5896 5895 5893 5892 5890 5889 5888
5893 5895 5898 5901 5904 5905 5906 5907 5909 5911 5911 5911 5911 5911 5909 5909 5909 5909 5909 5908 5907 5907 5907 5906 5906 5905 5904 5903 5902 5902 5901 5900 5899 5898 5897 5895 5894 5892 5891 5889 5888 5887 5885 5884
5888 5891 5893 5897 5901 5901 5901 5902 5904 5905 5907 5908 5908 5908 5904 5905 5905 5905 5905 5903 5903 5903 5903 5903 5902 5901 5900 5900 5899 5898 5897 5897 5896 5894 5893 5892 5890 5888 5887 5886 5884 5882 5881 5879
5883 5885 5888 5892 5894 5896 5897 5898 5899 5900 5901 5902 5903 5902 5899 5899 5899 5899 5899 5899 5899 5898 5899 5899 5898 5898 5897 5896 5895 5894 5894 5892 5891 5890 5889 5887 5886 5884 5883 5881 5879 5877 5876 5874
5877 5879 5882 5885 5887 5889 5890 5892 5894 5895 5895 5897 5897 5897 5895 5893 5893 5893 5894 5895 5894 5894 5894 5894 5894 5893 5892 5891 5891 5890 5889 5888 5886 5885 5884 5883 5881 5879 5878 5876 5874 5872 5870 5869
5871 5873 5875 5878 5880 5882 5884 5886 5888 5889 5890 5891 5891 5891 5890 5888 5888 5888 5888 5888 5888 5888 5888 5887 5887 5887 5886 5886 5885 5885 5884 5882 5881 5880 5879 5877 5876 5874 5872 5870 5869 5867 5865 5862
5865 5867 5869 5871 5873 5874 5877 5879 5881 5883 5883 5883 5883 5883 5883 5882 5881 5881 5881 5880 5881 5881 5882 5881 5881 5880 5880 5880 5879 5878 5877 5876 5875 5874 5873 5871 5870 5868 5866 5864 5863 5861 5858 5856
5859 5860 5862 5864 5867 5868 5872 5873 5874 5875 5875 5875 5875 5874 5875 5875 5874 5874 5873 5873 5874 5875 5874 5874 5874 5874 5873 5872 5872 5871 5871 5870 5869 5868 5866 5865 5864 5862 5860 5858 5856 5854 5852 5849
5852 5854 5856 5858 5859 5861 5863 5864 5867 5868 5868 5868 5868 5867 5867 5867 5867 5867 5866 5866 5866 5867 5867 5867 5866 5866 5865 5865 5864 5864 5864 5863 5862 5861 5860 5858 5857 5855 5853 5851 5849 5847 5845 5842
5846 5848 5850 5851 5853 5855 5857 5857 5859 5861 5859 5859 5859 5859 5860 5861 5860 5859 5859 5859 5859 5859 5859 5859 5858 5858 5858 5857 5857 5857 5856 5855 5854 5853 5852 5850 5849 5847 5845 5844 5841 5839 5837 5834
5840 5841 5843 5845 5846 5847 5848 5849 5851 5853 5851 5851 5851 5851 5852 5851 5851 5851 5851 5851 5851 5850 5850 5850 5850 5850 5850 5850 5849 5849 5848 5847 5846 5845 5844 5842 5840 5838 5837 5835 5832 5830 5828 5826
5833 5835 5836 5838 5839 5842 5841 5842 5843 5843 5843 5843 5843 5844 5843 5842 5842 5842 5842 5841 5842 5841 5841 5841 5841 5841 5842 5841 5841 5840 5839 5838 5837 5836 5834 5833 5831 5829 5827 5825 5823 5821 5819 5817
5827 5829 5829 5831 5833 5833 5833 5833 5834 5835 5835 5835 5835 5835 5835 5835 5834 5834 5833 5833 5833 5833 5833 5832 5831 5832 5832 5832 5832 5831 5830 5829 5827 5826 5825 5823 5821 5819 5817 5815 5813 5811 5809 5807
5819 5820 5822 5823 5823 5825 5826 5825 5826 5827 5827 5827 5827 5827 5827 5827 5827 5825 5825 5824 5824 5824 5824 5824 5823 5823 5823 5823 5822 5821 5820 5819 5817 5816 5814 5813 5811 5809 5807 5805 5803 5801 5799 5797
5811 5813 5814 5815 5816 5818 5817 5818 5818 5818 5819 5819 5819 5819 5819 5818 5818 5817 5816 5816 5816 5815 5815 5815 5814 5814 5814 5813 5812 5811 5810 5809 5807 5805 5803 5802 5800 5798 5796 5794 5792 5790 5788 5786
5804 5805 5806 5807 5808 5809 5809 5809 5810 5810 5811 5810 5810 5810 5810 5809 5809 5808 5807 5807 5806 5806 5806 5805 5805 5804 5803 5802 5801 5801 5800 5798 5796 5795 5793 5791 5789 5787 5785 5783 5781 5779 5777 5775